This is the latest recevied weather packets stored in our database for station/object 9M2MIN-2. If no packets are shown the sender has not sent any weather packets the latest 10 day(s).
| Time | Temp. | Humidity | Pressure | Rain* | Wind** | Luminosity | Snow |
|---|---|---|---|---|---|---|---|
| 1777629678 | 30.56° C | 69% | 1006.8 hPa | - | - | - | - |
| 1777628783 | 30.56° C | 69% | 1006.5 hPa | - | - | - | - |
| 1777627883 | 30.56° C | 70% | 1006.9 hPa | - | - | - | - |
| 1777626983 | 30.56° C | 69% | 1006.5 hPa | - | - | - | - |
| 1777626083 | 30.56° C | 69% | 1006.2 hPa | - | - | - | - |
| 1777625183 | 30.56° C | 69% | 1006.4 hPa | - | - | - | - |
| 1777624282 | 30.56° C | 69% | 1006.8 hPa | - | - | - | - |
| 1777623382 | 30.56° C | 68% | 1007.1 hPa | - | - | - | - |
| 1777622482 | 30.56° C | 67% | 1007.4 hPa | - | - | - | - |
| 1777621582 | 30.56° C | 68% | 1007.1 hPa | - | - | - | - |
| 1777620682 | 30.56° C | 68% | 1006.9 hPa | - | - | - | - |
| 1777619782 | 30.56° C | 68% | 1007.1 hPa | - | - | - | - |
| 1777618882 | 31.11° C | 66% | 1006.9 hPa | - | - | - | - |
| 1777617982 | 31.11° C | 69% | 1007.1 hPa | - | - | - | - |
| 1777617082 | 31.11° C | 70% | 1007.7 hPa | - | - | - | - |
| 1777616182 | 30.56° C | 70% | 1007.8 hPa | - | - | - | - |
| 1777615281 | 30.56° C | 71% | 1008.2 hPa | - | - | - | - |
| 1777614381 | 30.56° C | 73% | 1008.6 hPa | - | - | - | - |
| 1777613481 | 30.56° C | 73% | 1009 hPa | - | - | - | - |
| 1777612580 | 30.56° C | 75% | 1009.3 hPa | - | - | - | - |
| 1777611679 | 30° C | 72% | 1009.8 hPa | - | - | - | - |
| 1777610779 | 30.56° C | 72% | 1010.1 hPa | - | - | - | - |
| 1777609879 | 30.56° C | 71% | 1010.3 hPa | - | - | - | - |
| 1777608979 | 30.56° C | 70% | 1010.5 hPa | - | - | - | - |
| 1777608078 | 30.56° C | 71% | 1010.8 hPa | - | - | - | - |
* Rain since midnight (hover to see other rain measurements)
** Current wind speed in m/s (hover to see current wind gust speed)